Location: Baia Mare
(47.6567°N, 23.5850°E)
Time: 14:37:45
(UTC+03:00)

ISS - Pass Details

Date: 02 August 2019
Orbit: 409 x 418 km, 51.6° (Epoch: 21 July)

Event Time Altitude Azimuth Distance (km) Brightness Sun altitude
Rises 23:01:09 0° 286° (WNW) 2,354 0.9 -16.5°
Reaches altitude 10° 23:03:47 10° 264° (W) 1,485 -0.6 -16.7°
Maximum altitude 23:05:56 16° 224° (SW) 1,163 -1.6 -16.9°
Enters shadow 23:06:19 16° 215° (SW) 1,173 -1.7 -17.0°
